Location: Barcelona
(41.3829°N, 2.1774°E)
Time: 14:28:30
(UTC+00:00)

ISS - Pass Details

Date: 14 July 2024
Orbit: 410 x 424 km, 51.6° (Epoch: 14 July)

Event Time Altitude Azimuth Distance (km) Brightness Sun altitude
Rises 22:37:01 0° 305° (NW) 2,342 0.9 -24.4°
Reaches altitude 10° 22:39:49 10° 330° (NNW) 1,481 0.0 -24.6°
Maximum altitude 22:41:47 15° 7° (N) 1,227 -0.7 -24.7°
Drops below altitude 10° 22:43:46 10° 43° (NE) 1,482 -0.7 -24.9°
Enters shadow 22:44:31 - 53° (NE) 1,680 -0.5 -24.9°
